Theta_e
347 342 337 341 351 353 355 355 354 354 353 354 354 353 354 353 353 353 353 364 363 359 356 354 355 354 354 355 356 358 357 356 355 353 353 354 358 359 359 359 358 359 359
350 349 347 345 353 354 354 353 350 354 353 353 352 355 354 352 351 351 351 355 361 359 358 355 355 355 354 353 353 353 353 353 352 355 354 354 352 355 358 358 359 358 358
339 348 353 354 355 354 355 354 348 348 344 342 342 349 350 349 348 348 348 348 353 359 358 354 353 353 352 352 352 351 351 350 349 349 349 351 352 352 353 357 358 357 356
350 354 353 356 354 351 350 351 349 346 341 338 338 339 345 345 345 345 346 346 346 348 354 352 348 347 348 347 347 345 345 345 346 346 347 347 347 351 351 353 356 357 354
354 351 352 350 354 350 351 351 348 348 338 337 338 338 340 341 342 347 342 342 340 339 343 349 346 346 346 343 342 342 341 340 339 340 341 343 345 345 349 350 352 353 352
346 348 352 344 354 353 352 349 348 347 341 338 339 337 338 341 344 342 341 341 338 335 337 342 336 338 345 344 344 339 336 339 339 338 337 337 337 341 344 349 348 351 349
355 351 349 339 346 351 354 352 351 345 340 339 332 333 334 337 343 341 340 338 338 338 337 339 336 336 339 345 342 338 340 340 337 335 337 333 335 334 339 343 347 348 348
354 349 341 334 347 353 351 351 349 341 342 339 330 327 325 329 332 342 341 342 338 340 339 340 337 335 334 336 336 339 340 339 339 336 335 332 332 334 334 338 344 347 347
355 351 347 343 350 355 352 351 350 346 338 343 335 328 323 320 325 328 330 335 337 336 335 337 335 334 333 330 339 338 340 338 335 336 334 331 331 332 333 335 340 346 346
352 357 354 357 357 355 354 352 353 352 343 340 341 337 334 331 325 320 329 332 334 334 333 335 333 329 332 331 336 337 338 337 336 334 331 332 332 333 332 334 337 344 346
352 353 354 353 358 358 353 357 353 349 350 343 343 340 336 337 333 325 321 325 327 327 330 330 331 327 331 331 330 335 335 333 331 330 330 331 333 333 333 333 336 342 345
347 349 354 355 357 357 356 355 353 351 349 346 346 342 337 334 333 328 324 322 320 324 325 326 327 326 328 327 330 333 333 332 330 328 329 330 331 332 333 334 336 341 345
346 347 354 355 355 358 356 352 355 353 351 347 345 342 341 341 337 332 328 326 321 322 324 325 325 326 328 326 325 333 333 331 328 327 328 329 330 331 333 334 336 339 343
346 344 350 355 353 354 353 352 355 353 353 348 347 343 339 342 340 336 329 326 318 320 322 323 328 329 326 327 328 334 328 331 328 328 328 327 328 328 333 335 337 340 342
346 350 351 349 350 349 351 347 351 353 354 349 346 344 340 343 341 339 333 330 322 312 319 322 323 326 327 327 329 327 324 330 329 328 326 325 326 327 332 335 338 338 338
349 348 349 350 350 350 350 350 348 350 352 349 346 345 341 343 339 342 336 328 324 314 317 323 321 325 323 325 328 324 325 329 329 327 325 325 326 327 330 333 334 334 336
346 344 345 347 347 349 351 350 349 348 351 347 349 344 340 341 341 339 332 323 323 320 315 319 323 322 322 322 325 323 326 322 321 327 325 326 325 327 329 330 331 332 332
346 345 345 346 348 349 351 351 351 352 348 345 347 344 339 343 339 338 334 325 323 320 317 314 320 321 320 324 322 321 325 323 319 327 326 326 325 326 326 327 327 327 326
348 351 353 353 354 352 351 349 349 352 349 348 348 347 343 342 337 336 329 324 324 323 318 316 313 315 321 323 321 321 321 320 321 326 327 326 326 326 325 325 324 323 321
355 353 351 349 350 350 353 356 355 353 352 348 352 350 344 342 339 331 327 324 323 318 315 316 315 313 316 322 322 319 316 318 317 320 324 324 325 325 325 325 324 324 321
347 347 352 351 351 352 353 351 351 348 348 347 350 348 345 344 341 334 328 324 321 317 315 314 313 311 312 319 319 320 317 317 317 318 316 313 314 315 318 324 323 325 322
348 350 349 350 350 354 342 336 340 343 343 345 342 337 336 338 333 333 332 330 326 319 314 313 313 310 310 315 319 319 317 315 314 318 316 315 313 312 313 315 323 323 322
346 346 348 349 349 351 337 330 333 343 342 342 337 332 333 331 327 325 327 327 327 328 323 317 313 313 312 314 316 316 317 317 316 317 316 314 317 316 317 317 322 322 320
345 346 347 349 349 351 329 326 329 341 343 345 337 332 330 325 323 321 318 317 317 320 323 325 318 318 318 317 317 317 317 319 319 317 317 313 318 317 320 320 323 322 319
343 344 346 348 348 349 327 324 331 340 341 342 338 333 328 325 320 319 319 315 314 314 318 320 322 321 320 320 320 319 316 312 315 317 316 316 318 317 318 319 322 322 318
341 341 341 344 332 339 317 317 325 339 341 343 340 335 329 324 317 319 318 315 312 311 312 312 312 315 317 317 322 319 318 316 317 315 318 317 319 319 314 318 321 321 320
Wind_Speed
2 5 3 4 2 3 4 5 5 4 6 7 6 8 8 8 8 5 4 14 9 8 8 8 7 7 5 5 5 8 10 12 12 13 15 15 16 15 15 16 17 17 17
2 2 5 6 6 4 6 6 4 5 4 5 7 8 8 7 8 6 4 5 10 9 9 8 8 9 8 6 6 5 6 6 6 11 12 13 15 16 16 17 18 18 18
5 5 4 7 4 4 9 4 1 1 3 2 3 5 5 9 8 7 5 4 4 10 9 9 9 9 9 7 6 7 6 5 5 6 3 9 13 15 16 16 18 19 20
8 4 4 2 3 0 3 3 2 1 2 3 2 3 2 5 7 5 4 3 4 3 8 11 11 10 9 8 8 8 8 7 6 6 6 5 6 13 17 18 17 19 21
7 5 3 1 1 2 2 1 1 2 1 3 4 1 3 4 4 6 5 5 5 4 3 10 12 11 10 10 9 9 8 10 7 7 6 6 6 4 13 17 20 20 20
5 6 4 2 2 1 1 1 2 3 0 3 3 4 3 3 5 4 4 3 5 4 1 4 5 5 11 12 13 11 8 8 8 9 8 7 3 4 5 13 15 18 15
4 5 3 0 0 1 1 3 2 4 3 4 4 5 6 5 5 3 2 2 4 4 5 4 3 3 3 14 14 12 9 8 7 6 11 3 3 2 2 3 14 16 20
6 4 4 3 4 2 1 1 2 2 3 4 2 2 4 4 3 1 1 2 3 2 3 4 4 4 3 3 7 12 10 9 9 8 10 1 2 1 2 2 4 15 15
7 6 6 5 5 3 3 2 2 4 2 3 4 3 3 1 3 3 5 4 4 2 2 3 3 3 4 3 7 8 13 8 6 7 6 3 2 1 1 2 3 12 17
6 6 6 5 4 3 3 3 3 3 3 1 2 3 4 6 3 2 3 4 4 5 3 2 3 3 4 2 6 9 11 10 8 7 4 5 3 3 2 1 3 6 17
4 6 5 6 5 4 4 5 4 3 2 2 2 2 3 4 2 1 2 1 2 2 2 2 2 1 2 5 2 5 7 4 3 5 4 3 4 4 2 3 4 5 17
4 6 6 6 5 4 4 4 5 5 5 3 3 3 4 4 3 3 3 1 3 1 1 1 2 2 2 3 4 5 6 5 4 4 3 3 2 3 3 3 6 6 14
3 5 1 4 3 4 5 3 5 5 6 4 5 4 4 5 4 4 3 3 3 2 2 3 3 3 3 3 4 8 10 7 5 5 4 2 1 3 5 4 8 8 10
3 4 3 4 5 4 4 3 3 4 5 5 6 5 4 4 4 4 3 4 2 1 2 2 3 4 3 4 6 12 4 8 6 7 5 2 1 3 7 5 9 8 8
3 2 1 2 3 5 5 3 2 4 5 5 6 6 4 4 3 3 3 3 3 4 3 4 3 4 4 5 7 3 5 8 8 8 6 4 3 2 5 4 4 4 5
4 5 5 4 5 5 6 3 3 4 5 5 4 7 6 3 3 3 4 3 3 4 4 2 3 3 4 3 5 5 5 8 7 8 6 5 4 2 1 5 6 7 7
7 7 5 5 6 6 6 5 5 6 6 5 5 7 6 5 5 4 2 2 3 4 4 1 2 2 2 3 2 3 5 4 3 7 6 6 4 3 2 2 6 7 7
5 6 6 6 6 6 6 6 6 7 7 6 4 6 7 4 5 3 2 5 4 4 4 4 2 2 2 2 2 3 3 3 3 6 7 6 5 4 3 2 3 6 6
6 6 5 5 5 7 7 7 7 9 7 5 3 8 9 6 5 3 2 4 4 3 3 5 3 1 1 2 2 3 3 3 2 5 6 6 5 5 8 6 2 2 2
3 6 4 4 6 6 6 7 6 6 7 5 10 8 5 6 8 7 5 5 5 5 4 4 3 2 2 3 3 3 3 1 2 1 4 6 7 7 8 8 8 7 5
4 4 6 6 6 5 6 7 6 5 6 5 6 5 5 5 9 9 6 6 7 5 4 4 3 2 2 4 6 3 4 3 3 3 2 1 2 3 4 8 8 9 6
5 5 6 6 7 5 10 6 5 4 5 6 4 4 4 10 8 10 8 11 11 9 6 4 4 4 4 3 3 4 3 3 3 2 3 2 4 3 3 4 9 9 7
4 5 6 7 8 6 6 4 4 2 1 4 4 5 6 4 8 8 10 11 8 9 11 7 6 5 5 7 5 4 4 3 3 3 3 2 3 3 4 4 11 10 9
4 5 7 8 7 6 2 3 5 5 5 3 8 7 7 7 6 8 7 7 5 4 5 5 6 6 4 6 7 5 6 4 3 2 3 3 3 3 3 3 11 11 11
4 5 6 7 6 4 3 5 6 6 5 4 5 7 6 7 11 13 10 8 6 3 7 8 11 10 8 8 6 4 2 3 2 3 4 3 3 2 2 2 4 11 11
3 5 6 9 11 10 14 11 7 4 4 2 3 3 7 4 11 11 10 8 7 4 6 5 4 6 5 5 8 4 4 4 3 2 4 4 3 3 3 1 3 4 5
Wind_Direction
317 331 355 332 296 275 255 258 248 238 251 249 231 189 206 213 226 206 193 205 189 157 168 185 164 149 131 133 164 191 203 210 211 221 224 224 209 205 202 194 189 181 174
165 300 301 296 282 246 262 241 229 244 261 239 245 232 205 207 198 196 176 191 167 163 165 160 141 118 110 120 125 144 171 202 220 219 220 221 224 209 202 194 187 181 176
193 184 228 255 274 282 256 203 306 171 256 359 307 246 187 198 189 174 145 143 145 160 165 153 129 118 121 138 121 105 101 94 66 40 11 239 221 216 212 197 191 178 175
184 193 223 209 199 280 44 41 30 67 12 3 301 302 242 191 176 154 121 129 142 166 165 150 131 133 140 132 122 115 114 109 101 86 77 38 265 215 206 200 196 184 181
179 158 83 9 58 53 49 73 238 184 17 320 293 171 261 167 152 147 144 161 161 172 149 160 153 154 154 152 141 134 121 107 99 89 61 74 23 298 216 205 196 192 187
175 130 130 114 16 171 26 21 58 22 33 319 329 12 27 148 121 131 187 144 151 143 179 162 163 180 175 168 150 157 133 116 117 91 66 32 43 354 348 224 208 192 160
170 136 138 146 264 143 188 20 335 44 339 351 24 23 30 38 77 93 97 158 183 167 195 160 175 177 185 158 171 172 170 165 139 109 87 4 47 5 350 341 225 202 173
169 161 154 184 207 225 46 50 20 37 359 26 86 104 24 355 21 325 136 219 208 167 151 175 174 171 172 157 190 185 180 182 165 134 115 134 67 13 337 330 258 217 193
180 181 191 187 198 161 173 168 133 93 55 330 55 121 42 329 330 2 28 23 19 47 32 102 86 121 135 152 197 202 193 192 196 139 124 165 183 174 269 314 321 214 208
189 198 208 188 187 188 171 173 169 116 126 56 343 65 79 81 323 344 6 16 43 69 49 69 126 143 162 128 175 201 201 190 208 136 146 157 186 219 212 275 265 217 196
279 258 221 204 202 196 175 177 170 144 150 137 157 103 69 68 115 291 241 162 46 20 82 150 143 128 117 117 140 179 172 182 134 107 126 158 155 222 218 214 225 204 192
299 270 234 213 205 205 184 196 195 179 178 178 150 134 136 137 194 197 235 195 157 227 95 187 165 174 142 118 172 201 174 174 130 118 140 162 179 225 279 234 212 199 196
268 1 318 201 206 225 224 190 197 205 192 197 169 163 148 164 151 194 181 180 159 172 173 195 207 192 209 136 187 194 188 175 153 146 142 145 5 321 315 267 226 201 187
264 310 285 235 233 230 238 210 216 202 208 206 185 166 174 173 179 162 210 152 146 137 178 180 179 180 190 171 201 201 189 175 172 153 156 177 288 322 318 261 233 207 189
242 231 337 231 264 262 261 246 241 209 217 214 200 174 190 181 181 175 222 197 169 165 182 197 168 188 179 188 201 158 162 189 176 169 174 199 246 282 337 24 108 142 135
223 225 236 239 253 264 265 255 251 239 222 219 195 184 207 153 181 191 216 193 190 144 154 137 210 161 179 173 196 157 186 204 170 180 189 195 198 215 354 52 74 83 95
237 251 249 244 249 261 271 271 261 257 234 229 211 195 215 182 188 203 193 158 155 121 120 157 113 135 150 159 159 162 195 167 200 189 205 196 187 189 126 63 72 76 72
270 273 284 285 281 273 267 271 269 271 234 236 246 206 214 196 181 193 225 163 152 139 127 133 137 130 163 160 165 177 167 158 186 205 196 208 199 199 173 164 116 91 62
276 285 277 282 306 297 286 259 250 261 262 213 157 239 210 180 171 177 216 152 148 115 111 137 137 130 142 167 113 65 111 117 203 221 205 210 214 203 200 203 191 147 151
352 333 322 318 288 284 284 276 275 286 286 200 177 224 199 194 167 162 177 157 139 125 116 126 117 135 117 186 120 143 121 123 180 247 208 193 189 198 196 194 198 205 206
349 305 295 291 285 294 292 291 293 300 299 263 217 173 173 161 160 171 156 155 144 130 135 141 124 127 166 162 179 157 177 141 209 184 179 261 174 194 219 195 194 196 205
311 325 295 282 286 289 289 334 306 315 315 278 175 114 101 118 133 137 146 146 166 153 149 150 163 161 190 182 155 166 137 159 217 181 172 237 166 210 214 202 211 188 192
302 290 288 289 287 281 287 342 308 329 318 308 140 158 130 127 124 119 106 96 100 174 175 160 163 184 163 189 149 142 166 179 195 159 153 199 170 212 196 215 209 200 182
330 316 305 296 286 283 332 315 348 356 333 294 151 165 149 154 143 135 120 100 90 82 141 192 171 168 176 158 151 167 181 170 113 131 159 178 160 210 170 190 206 200 180
329 320 313 314 312 320 247 27 360 11 341 34 121 149 163 156 159 142 127 120 106 66 55 65 115 122 121 130 147 123 174 127 205 201 186 171 166 137 164 200 202 197 173
343 349 356 13 18 33 36 39 18 9 29 64 111 116 126 156 152 137 130 136 131 175 121 90 70 92 120 158 153 152 165 179 176 177 192 174 154 161 139 119 152 162 171